Weather History for Syracuse, NY

Change the Weather History Date:

Saturday, January 26, 2013

  Actual Average Record
Temperature  
Mean Temperature 9 °F 23 °F  
Max Temperature 19 °F 32 °F 68 °F (1950)
Min Temperature -2 °F 15 °F -26 °F (1966)
Degree Days  
Heating Degree Days 56 42  
Month to date heating degree days 999 1079  
Since 1 July heating degree days 3117 3532  
Cooling Degree Days 0 0  
Month to date cooling degree days 0 0  
Year to date cooling degree days 0 0  
Moisture  
Dew Point 2 °F    
Average Humidity 67    
Maximum Humidity 80    
Minimum Humidity 54    
Precipitation  
Precipitation 0.01 in 0.08 in 0.61 in (1949)
Month to date precipitation 0.55 2.15  
Year to date precipitation 0.55 2.15  
Snow  
Snow 0.30 in 1.10 in 8.20 in (1980)
Month to date snowfall 10.5 28.5  
Since 1 July snowfall 45.7 71.1  
Snow Depth 2.00 in    
Sea Level Pressure  
Sea Level Pressure 30.25 in    
Wind  
Wind Speed 3 mph (West)    
Max Wind Speed 12 mph    
Max Gust Speed 14 mph    
Visibility 9 miles    
Events Snow    
T = Trace of Precipitation, MM = Missing Value Source: NWS Daily Summary

Daily Weather History Graph

Daily Weather History Graph

Search for Another Location

Airport:

Trip Planner

Search our weather history database for the weather conditions in past years. The results will help you decide how hot, cold, wet, or windy it might be!

Date:

Astronomy

Jan. 26, 2013 Rise Set
Actual Time 7:25 AM EST 5:09 PM EST
Civil Twilight 6:54 AM EST 5:39 PM EST
Nautical Twilight 6:20 AM EST 6:14 PM EST
Astronomical Twilight 5:46 AM EST 6:47 PM EST
Moon 5:03 PM EST (1/26) 6:41 AM EST (1/26)
Length of Visible Light 10h 45m
Length of Day
9h 43m
Full, 100% of the Moon is Illuminated
Jan 26
Full
Jan 26
Full
Feb 3
Last Quarter
Feb 10
New
Feb 17
First Quarter

Hourly Weather History & Observations

Time (EST) Temp. Windchill Dew Point Humidity Pressure Visibility Wind Dir Wind Speed Gust Speed Precip Events Conditions
12:54 AM 6.1 °F - 1.9 °F 83% 30.11 in 10.0 mi Calm Calm - 0.00 in   Partly Cloudy
1:54 AM 3.9 °F - -2.0 °F 76% 30.11 in 10.0 mi Calm Calm - N/A   Partly Cloudy
2:28 AM 3.2 °F - -2.2 °F 78% 30.10 in 10.0 mi Calm Calm - N/A   Scattered Clouds
2:43 AM 3.2 °F - -0.4 °F 85% 30.10 in 10.0 mi Calm Calm - N/A   Overcast
2:54 AM 3.0 °F - -0.9 °F 84% 30.12 in 9.0 mi Calm Calm - 0.00 in Snow Light Snow
3:35 AM 3.2 °F - -0.4 °F 85% 30.11 in 9.0 mi Calm Calm - 0.00 in Snow Light Snow
3:54 AM 3.9 °F - -2.0 °F 76% 30.13 in 10.0 mi Calm Calm - 0.00 in   Partly Cloudy
4:54 AM 1.9 °F - -4.0 °F 76% 30.13 in 10.0 mi Calm Calm - N/A   Clear
5:54 AM 1.0 °F - -5.1 °F 75% 30.17 in 10.0 mi Calm Calm - N/A   Partly Cloudy
6:54 AM -2.0 °F - -7.1 °F 79% 30.18 in 10.0 mi Calm Calm - N/A   Scattered Clouds
7:54 AM 1.0 °F - -4.0 °F 79% 30.21 in 10.0 mi Calm Calm - N/A   Scattered Clouds
8:54 AM 3.9 °F - -0.0 °F 84% 30.22 in 8.0 mi Calm Calm - 0.00 in Snow Light Snow
9:54 AM 8.1 °F - 3.9 °F 83% 30.24 in 10.0 mi Calm Calm - 0.00 in   Mostly Cloudy
10:54 AM 12.0 °F 4.1 °F 6.1 °F 77% 30.25 in 10.0 mi WSW 4.6 mph - N/A   Mostly Cloudy
11:54 AM 15.1 °F 7.7 °F 3.9 °F 61% 30.24 in 10.0 mi WSW 4.6 mph - N/A   Mostly Cloudy
12:54 PM 17.1 °F 5.0 °F 3.9 °F 56% 30.25 in 10.0 mi WNW 10.4 mph - 0.00 in   Mostly Cloudy
1:54 PM 17.1 °F 6.6 °F 3.0 °F 54% 30.27 in 10.0 mi NW 8.1 mph - N/A   Overcast
2:54 PM 18.0 °F 11.1 °F 3.9 °F 54% 30.28 in 10.0 mi NW 4.6 mph - N/A   Mostly Cloudy
3:54 PM 18.0 °F 11.1 °F 3.9 °F 54% 30.29 in 10.0 mi NNW 4.6 mph - N/A   Mostly Cloudy
4:54 PM 17.1 °F 11.7 °F 3.0 °F 54% 30.30 in 10.0 mi NW 3.5 mph - N/A   Scattered Clouds
5:54 PM 12.9 °F - 1.9 °F 62% 30.32 in 10.0 mi Calm Calm - N/A   Partly Cloudy
6:54 PM 10.9 °F - 1.9 °F 67% 30.34 in 10.0 mi Calm Calm - N/A   Partly Cloudy
7:54 PM 9.0 °F - -0.0 °F 67% 30.35 in 10.0 mi Calm Calm - N/A   Partly Cloudy
8:54 PM 8.1 °F 1.4 °F 1.9 °F 76% 30.36 in 9.0 mi ESE 3.5 mph - 0.00 in Snow Light Snow
9:54 PM 10.0 °F - 3.9 °F 76% 30.36 in 9.0 mi Calm Calm - 0.00 in Snow Light Snow
10:54 PM 16.0 °F 5.3 °F 9.0 °F 74% 30.36 in 2.5 mi SW 8.1 mph - 0.00 in Snow Light Snow
11:02 PM 15.8 °F 5.1 °F 10.4 °F 79% 30.35 in 1.8 mi SW 8.1 mph - 0.00 in Snow Light Snow
11:06 PM 15.8 °F 5.1 °F 10.4 °F 79% 30.35 in 3.0 mi SW 8.1 mph - 0.00 in Snow Light Snow
11:19 PM 15.8 °F 7.2 °F 10.4 °F 79% 30.35 in 2.0 mi WSW 5.8 mph - 0.00 in Snow Light Snow
11:38 PM 15.8 °F 6.1 °F 10.4 °F 79% 30.36 in 1.8 mi WSW 6.9 mph - 0.00 in Snow Light Snow
11:54 PM 17.1 °F 6.6 °F 12.0 °F 81% 30.38 in 1.5 mi WSW 8.1 mph - 0.01 in Snow Light Snow